Location: Unspecified
(0.0000°N, 0.0000°E)
Time: 21:01:49
(UTC+00:00)

CZ-3C DEB (VEB) - Pass Details

Date: 14 March 2026
Orbit: 224 x 25513 km, 21.0° (Epoch: 10 April)

Event Time Altitude Azimuth Distance (km) Brightness Sun altitude
Rises 19:57:48 0° 282° (WNW) 3,985 ? -27.1°
Reaches altitude 10° 19:59:34 10° 290° (WNW) 3,583 ? -27.6°
Maximum altitude 20:09:48 48° 4° (N) 4,412 ? -30.1°
Enters shadow 20:56:22 27° 62° (ENE) 16,270 ? -41.8°
Exits shadow 21:03:10 26° 63° (ENE) 17,550 ? -43.5°
Drops below altitude 10° 02:15:04 10° 100° (E) 16,182 ? -58.4°
Sets 02:27:36 0° 103° (ESE) 14,567 ? -55.3°
